Weather reports worldwide

Advertisment
St. Mary's, United Kingdom (3803): temperature & dewpoint: 18.08.2017 00:00:00 - 24.08.2017 00:00:00 (BST)St. Mary's, United Kingdom (3803): temperature -20cm: 18.08.2017 00:00:00 - 24.08.2017 00:00:00 (BST)St. Mary's, United Kingdom (3803): wind speed & gusts: 18.08.2017 00:00:00 - 24.08.2017 00:00:00 (BST)St. Mary's, United Kingdom (3803): wind direction: 18.08.2017 00:00:00 - 24.08.2017 00:00:00 (BST)St. Mary's, United Kingdom (3803): reduced air pressure: 18.08.2017 00:00:00 - 24.08.2017 00:00:00 (BST)St. Mary's, United Kingdom (3803): visibility: 18.08.2017 00:00:00 - 24.08.2017 00:00:00 (BST)St. Mary's, United Kingdom (3803): precipitation: 18.08.2017 00:00:00 - 24.08.2017 00:00:00 (BST)
Date & Time tt [°C] td [°C] tt -20cm [°C] ff [km/h] ff [kn] fx [km/h] fx [kn] dd ppp [hPa] vv [km] rr [mm]
24.08.2017 00:00:00 - - - - - - - - - - -
23.08.2017 23:00:00 15,2 13,4 - 16 9 - - W 1017,7 29 0,0
23.08.2017 22:00:00 15,4 13,4 - 18 10 - - W 1017,6 30 0,0
23.08.2017 21:00:00 15,8 14,0 - 16 9 - - WSW 1017,2 17 0,0
23.08.2017 20:00:00 16,2 13,8 - 16 9 - - WSW 1017,0 24 0,0
23.08.2017 19:00:00 16,7 14,4 - 18 10 - - WSW 1017,1 13 0,0
23.08.2017 18:00:00 17,4 14,8 - 16 9 - - WSW 1017,1 10 0,0
23.08.2017 17:00:00 17,7 14,9 - 18 10 - - WSW 1016,9 10 0,0
23.08.2017 16:00:00 18,9 14,8 - 21 11 - - WSW 1016,9 10 0,0
23.08.2017 15:00:00 19,0 14,8 - 21 11 - - WSW 1016,8 10 0,0
23.08.2017 14:00:00 18,9 16,0 - 18 10 - - WSW 1016,9 10 0,0
23.08.2017 13:00:00 17,8 14,6 - 18 10 - - WSW 1016,6 10 0,0
23.08.2017 12:00:00 18,4 14,8 - 18 10 - - WSW 1016,4 10 0,0
23.08.2017 11:00:00 17,0 14,3 - 21 11 - - W 1016,2 10 0,0
23.08.2017 10:00:00 16,5 14,2 17,7 21 11 - - WSW 1015,9 10 0,0
23.08.2017 09:00:00 16,5 14,8 - 16 9 - - WSW 1015,5 10 0,0
23.08.2017 08:00:00 15,9 14,4 - 16 9 - - WSW 1015,3 10 0,0
23.08.2017 07:00:00 15,2 13,9 - 13 7 - - WSW 1014,9 - 0,0
23.08.2017 06:00:00 15,3 14,0 - 18 10 - - W 1014,5 - 0,0
23.08.2017 05:00:00 15,2 14,5 - 16 9 - - WSW 1014,3 - 0,0
23.08.2017 04:00:00 15,1 14,2 - 15 8 - - WSW 1014,4 - 0,0
23.08.2017 03:00:00 15,5 14,3 - 18 10 - - W 1014,4 - 0,0
23.08.2017 02:00:00 15,2 14,0 - 18 10 - - W 1014,4 - 0,0
23.08.2017 01:00:00 15,5 14,6 - 21 11 - - W 1014,3 - 0,0
23.08.2017 00:00:00 16,0 15,5 - 16 9 - - W 1014,1 - 0,0
22.08.2017 23:00:00 16,7 16,4 - 15 8 - - WSW 1014,0 - 0,0
22.08.2017 22:00:00 16,6 16,1 - 9 5 - - WSW 1013,7 - 0,0
22.08.2017 21:00:00 16,7 15,9 - 15 8 - - WSW 1013,3 - 0,0
22.08.2017 20:00:00 16,9 15,6 - 15 8 - - WSW 1012,8 - 0,0
22.08.2017 19:00:00 17,6 16,0 - - - - - - 1012,8 - 0,0
22.08.2017 18:00:00 18,2 16,8 - 21 11 - - SW 1012,6 10 0,0
22.08.2017 17:00:00 18,3 16,6 - 16 9 - - SSW 1012,5 10 0,0
22.08.2017 16:00:00 19,0 16,8 - 26 14 - - SSE 1012,6 10 0,0
22.08.2017 15:00:00 19,7 17,1 - 24 13 - - SSE 1012,8 - 0,0
22.08.2017 14:00:00 19,0 16,8 - 28 15 - - SE 1013,2 10 1,0
22.08.2017 13:00:00 18,8 16,5 - 28 15 - - ESE 1013,5 10 0,0
22.08.2017 12:00:00 19,0 13,5 - 28 15 - - ESE 1014,0 10 -
22.08.2017 11:00:00 18,1 16,8 - 29 16 - - E 1014,3 10 0,0
22.08.2017 10:00:00 17,5 16,7 17,7 34 18 - - E 1014,5 10 0,0
22.08.2017 09:00:00 17,5 16,9 - 34 18 - - E 1014,6 10 0,0
22.08.2017 08:00:00 17,0 16,7 - 29 16 - - E 1015,1 10 0,0
22.08.2017 07:00:00 16,3 16,2 - 26 14 - - ESE 1015,5 14 0,0
22.08.2017 06:00:00 16,0 16,0 - 29 16 - - ESE 1015,8 16 0,0
22.08.2017 05:00:00 15,8 15,8 - 26 14 - - ESE 1016,4 20 0,0
22.08.2017 04:00:00 15,4 15,4 - 26 14 - - ESE 1017,3 0,5 0,0
22.08.2017 03:00:00 15,2 15,2 - 22 12 - - ESE 1017,9 0,3 0,0
22.08.2017 02:00:00 15,8 15,5 - 22 12 - - ESE 1018,2 0,4 0,0
22.08.2017 01:00:00 16,1 15,8 - 22 12 - - SE 1018,4 45 0,0
22.08.2017 00:00:00 15,9 15,5 - 21 11 - - ESE 1019,0 14 0,0
21.08.2017 23:00:00 16,1 15,6 - 13 7 - - ESE 1019,5 12 0,0
21.08.2017 22:00:00 16,3 15,7 - 13 7 - - SSE 1019,9 19 0,0
21.08.2017 21:00:00 16,4 16,0 - 13 7 - - SE 1019,8 17 0,0
21.08.2017 20:00:00 16,4 16,2 - 11 6 - - SSE 1019,9 26 0,0
21.08.2017 19:00:00 16,3 16,0 - 16 9 - - S 1019,9 0,7 0,0
21.08.2017 18:00:00 16,9 16,4 - 9 5 - - S 1020,2 0,8 0,0
21.08.2017 17:00:00 17,1 16,4 - 13 7 - - S 1020,5 8 0,0
21.08.2017 16:00:00 17,3 16,3 - 13 7 - - S 1021,0 10 0,0
21.08.2017 15:00:00 17,9 16,4 - 13 7 - - S 1021,3 10 0,0
21.08.2017 14:00:00 18,3 16,3 - 15 8 - - S 1021,6 10 0,0
21.08.2017 13:00:00 18,9 17,1 - 11 6 - - S 1021,6 10 0,0
21.08.2017 12:00:00 17,7 15,9 - 13 7 - - SSW 1021,7 10 0,0
21.08.2017 11:00:00 17,3 15,9 - 9 5 - - SSW 1021,8 10 0,0
21.08.2017 10:00:00 17,3 16,1 17,2 15 8 - - WSW 1022,0 10 0,0
21.08.2017 09:00:00 17,3 16,2 - 18 10 - - SW 1021,8 10 0,0
21.08.2017 08:00:00 16,8 16,0 - 16 9 - - WSW 1021,6 10 0,0
21.08.2017 07:00:00 15,8 15,1 - 21 11 - - WSW 1021,7 17 0,0
21.08.2017 06:00:00 16,0 15,7 - 24 13 - - WSW 1021,4 27 0,0
21.08.2017 05:00:00 15,9 15,8 - 24 13 - - WSW 1021,6 14 0,0
21.08.2017 04:00:00 16,2 16,2 - 22 12 - - WSW 1021,7 4,7 0,0
21.08.2017 03:00:00 16,4 16,4 - 18 10 - - WSW 1022,0 5 0,0
21.08.2017 02:00:00 16,6 16,6 - 21 11 - - WSW 1022,0 6 0,0
21.08.2017 01:00:00 16,6 16,5 - 18 10 - - SW 1022,3 6 0,0
21.08.2017 00:00:00 16,8 16,7 - 18 10 - - SW 1022,3 7 0,0
20.08.2017 23:00:00 16,7 16,5 - 18 10 - - WSW 1022,3 7 0,0
20.08.2017 22:00:00 16,9 16,6 - 18 10 - - WSW 1022,4 8 0,0
20.08.2017 21:00:00 17,1 16,7 - 21 11 - - WSW 1021,9 10 0,0
20.08.2017 20:00:00 17,3 16,9 - 26 14 - - WSW 1021,5 10 0,0
20.08.2017 19:00:00 17,5 17,2 - 24 13 - - WSW 1021,1 9 0,0
20.08.2017 18:00:00 17,6 17,5 - 28 15 - - WSW 1021,1 10 0,0
20.08.2017 17:00:00 17,7 17,7 - 28 15 - - WSW 1021,1 8 0,0
20.08.2017 16:00:00 17,7 17,7 - 28 15 - - WSW 1020,9 4,7 0,2
20.08.2017 15:00:00 17,4 17,4 - 29 16 - - WSW 1021,0 0,3 0,0
20.08.2017 14:00:00 17,4 17,4 - 22 12 - - SW 1021,0 3,0 0,4
20.08.2017 13:00:00 17,2 17,2 - 24 13 - - SSW 1020,9 0,9 0,6
20.08.2017 12:00:00 16,1 16,1 - 37 20 50 27 S 1020,9 2,0 0,4
20.08.2017 11:00:00 15,9 15,9 - 35 19 - - S 1021,1 2,6 0,8
20.08.2017 10:00:00 15,4 15,3 17,0 34 18 - - S 1021,5 2,9 0,2
20.08.2017 09:00:00 14,9 14,8 - 34 18 - - SSE 1021,9 5 1,0
20.08.2017 08:00:00 14,4 13,8 - 31 17 - - S 1022,2 5 0,0
20.08.2017 07:00:00 14,0 13,1 - 34 18 - - S 1022,3 6 0,0
20.08.2017 06:00:00 15,7 14,2 - 24 13 - - S 1022,2 30 0,0
20.08.2017 05:00:00 15,6 14,1 - 22 12 - - S 1022,5 25 0,0
20.08.2017 04:00:00 15,7 13,9 - 21 11 - - S 1022,8 26 0,0
20.08.2017 03:00:00 15,6 13,3 - 18 10 - - SSW 1023,2 30 0,0
20.08.2017 02:00:00 15,5 13,2 - 16 9 - - SSW 1023,5 45 0,0
20.08.2017 01:00:00 14,8 12,5 - 13 7 - - SW 1023,6 40 0,0
20.08.2017 00:00:00 14,9 12,3 - 9 5 - - WSW 1024,2 30 0,0
19.08.2017 23:00:00 15,1 12,1 - 16 9 - - W 1024,5 45 0,0
19.08.2017 22:00:00 15,1 12,0 - 16 9 - - W 1024,2 45 0,0
19.08.2017 21:00:00 14,9 12,0 - 13 7 - - W 1023,9 40 0,0
19.08.2017 20:00:00 15,2 11,9 - 11 6 - - WSW 1023,6 30 0,0
19.08.2017 19:00:00 15,7 11,2 - 18 10 - - W 1023,5 40 0,0
19.08.2017 18:00:00 15,8 11,0 - 16 9 - - W 1023,8 10 0,0
19.08.2017 17:00:00 17,5 11,7 - 21 11 - - W 1023,6 10 0,0
19.08.2017 16:00:00 17,7 12,8 - 24 13 - - WSW 1023,4 10 0,0
19.08.2017 15:00:00 17,6 12,3 - 22 12 - - WSW 1023,4 10 0,0
19.08.2017 14:00:00 17,4 11,4 - 24 13 - - W 1023,3 10 0,0
19.08.2017 13:00:00 17,7 11,8 - 21 11 - - W 1023,0 10 0,0
19.08.2017 12:00:00 17,2 12,3 - 21 11 - - W 1022,8 10 0,0
19.08.2017 11:00:00 16,4 11,4 - 24 13 - - WNW 1022,7 10 0,0
19.08.2017 10:00:00 15,6 11,9 16,7 24 13 - - W 1022,3 10 0,0
19.08.2017 09:00:00 15,4 12,1 - 22 12 - - W 1022,0 25 0,0
19.08.2017 08:00:00 15,4 12,0 - 22 12 - - WNW 1021,4 23 0,0
19.08.2017 07:00:00 14,4 11,7 - 26 14 - - WNW 1021,0 19 0,0
19.08.2017 06:00:00 14,8 12,6 - 24 13 - - W 1020,6 16 0,0
19.08.2017 05:00:00 14,6 11,7 - 26 14 - - WNW 1020,2 25 0,0
19.08.2017 04:00:00 14,5 12,4 - 24 13 - - WNW 1020,2 17 0,0
19.08.2017 03:00:00 14,7 11,6 - 28 15 - - WNW 1020,1 17 0,0
19.08.2017 02:00:00 14,5 11,8 - 29 16 46 25 W 1019,9 15 0,0
19.08.2017 01:00:00 14,6 12,3 - 29 16 - - WNW 1019,7 15 0,0
19.08.2017 00:00:00 14,5 12,6 - 34 18 46 25 WNW 1019,3 16 0,0
18.08.2017 23:00:00 14,1 13,0 - 31 17 57 31 W 1019,3 14 0,4
18.08.2017 22:00:00 15,1 11,9 - 34 18 52 28 W 1018,8 15 0,0
18.08.2017 21:00:00 15,1 11,9 - 35 19 55 30 W 1018,3 17 0,0
18.08.2017 20:00:00 15,3 11,2 - 35 19 54 29 W 1017,5 20 0,0
18.08.2017 19:00:00 16,1 11,3 - 34 18 54 29 W 1017,2 25 0,0
18.08.2017 18:00:00 16,5 11,4 - 42 23 61 33 W 1016,8 10 0,0
18.08.2017 17:00:00 17,2 11,9 - 41 22 63 34 W 1016,6 10 0,0
18.08.2017 16:00:00 17,3 11,5 - 42 23 61 33 W 1016,6 10 0,0
18.08.2017 15:00:00 17,3 10,6 - 41 22 57 31 W 1016,3 10 0,0
18.08.2017 14:00:00 16,7 11,7 - 29 16 54 29 W 1015,8 10 0,0
18.08.2017 13:00:00 17,6 11,5 - 35 19 50 27 W 1015,5 10 0,0
18.08.2017 12:00:00 17,0 11,4 - 28 15 50 27 W 1015,3 10 0,0
18.08.2017 11:00:00 16,7 13,3 - 29 16 52 28 W 1015,1 10 0,0
18.08.2017 10:00:00 15,8 11,0 17,2 28 15 48 26 W 1014,7 10 0,0
18.08.2017 09:00:00 15,0 11,4 - 28 15 - - W 1014,2 10 0,0
18.08.2017 08:00:00 14,9 12,4 - 24 13 - - W 1013,4 10 0,0
18.08.2017 07:00:00 13,2 10,8 - 34 18 46 25 W 1013,0 19 0,6
18.08.2017 06:00:00 14,5 11,7 - 26 14 - - W 1012,8 30 0,0
18.08.2017 05:00:00 14,7 12,1 - 26 14 46 25 W 1012,5 35 0,0
18.08.2017 04:00:00 14,8 12,5 - 28 15 - - W 1012,6 30 0,0
18.08.2017 03:00:00 14,7 12,8 - 28 15 48 26 W 1012,7 35 0,0
18.08.2017 02:00:00 15,2 13,6 - 35 19 46 25 W 1012,6 17 0,0
18.08.2017 01:00:00 15,0 14,1 - 29 16 - - W 1012,4 16 2,6
18.08.2017 00:00:00 16,0 14,5 - 28 15 - - WSW 1012,2 10 0,0

tt = temperature
td = dewpoint
tt -20cm = temperature -20cm
ff = wind speed
fx = gusts
dd = wind direction
ppp = reduced air pressure
vv = visibility
rr = precipitation

Next stations